Location: Kielce
(50.8833°N, 20.6167°E)
Time: 21:55:35
(UTC+02:00)

SR - Pass Details

Date: 28 April 2021
Orbit: 573 x 882 km, 66.7° (Epoch: 09 May)

Event Time Altitude Azimuth Distance (km) Brightness Sun altitude
Rises 12:14:25 0° 318° (NW) 3,491 ? 53.2°
Reaches altitude 10° 12:17:26 10° 331° (NNW) 2,542 ? 53.2°
Maximum altitude 12:22:15 25° 26° (NNE) 1,674 ? 53.3°
Drops below altitude 10° 12:26:54 10° 81° (E) 2,444 ? 53.4°
Sets 12:29:43 0° 94° (E) 3,329 ? 53.4°
